Location: Observatory Park - Geauga Park District
(41.5832°N, 81.0716°W)
Time: 03:42:45
(UTC-04:00)

X-37B - Visible Passes

Search period start: 18 September 2021 00:00
Search period end: 28 September 2021 00:00
Orbit: 381 x 393 km, 45.0° (Epoch: 29 August)

Date Brightness Start Highest point End Pass type
(mag) Time Alt. Az. Time Alt. Az. Time Alt. Az.
20 Sep 3.0 05:50:37 11° S 05:52:38 18° SE 05:54:51 10° E visible
21 Sep 1.1 06:27:30 10° SW 06:30:35 55° SSE 06:33:42 10° ENE visible
22 Sep 1.8 05:31:58 30° SSE 05:32:18 31° SSE 05:35:09 10° E visible
23 Sep 0.5 06:08:40 24° WSW 06:10:25 89° NNW 06:13:36 10° ENE visible
24 Sep 2.0 05:13:02 36° E 05:13:02 36° E 05:15:10 10° ENE visible
24 Sep 1.2 06:45:42 10° W 06:48:46 47° N 06:51:50 10° ENE visible
25 Sep 0.8 05:49:38 46° WNW 05:50:19 60° NNW 05:53:26 10° ENE visible
26 Sep 3.3 04:53:55 20° ENE 04:53:55 20° ENE 04:55:03 10° ENE visible
26 Sep 1.4 06:26:12 14° WNW 06:28:44 42° N 06:31:45 10° ENE visible
27 Sep 1.3 05:30:29 45° N 05:30:29 45° N 05:33:18 10° ENE visible
